CARTOSAT-2E

Last updated on Mon Sep 07 2026 00:02:46 GMT+0000 (Coordinated Universal Time)

1 42767U 17036C 26249.64950218 .00002533 00000+0 12347-3 0 9993 2 42767 97.4200 308.0725 0004253 43.4078 316.7491 15.19226216510513
UTC large
Height (km)
Speed (km/s)
/
Latitude / Longitude
Inclination (degrees)
Orbital Period (minutes)
Azimuth
Elevation
Range (km)
Doppler Factor

Next 0 passes for location: London (51.5072 / 0.1276)

No passes found over London.
CARTOSAT-2E